Hourly Weather Roundup
Issued by NWS Central Illinois

Home | Current Version | Previous Version | Text Only | Print | Product List | Glossary On
Versions: 1 2 3 4 5 6 7 8 9 10 11 12 13 14 15 16 17 18 19 20 21 22 23 24 25 26 27 28 29 30 31 32 33 34 35 36 37 38 39 40 41 42 43 44 45 46 47 48 49 50
000
NZUS43 KILX 250710
HWRILX

AREA WEATHER ROUNDUP
NATIONAL WEATHER SERVICE, LINCOLN IL
200 AM CDT WED MAY 25 2016


CITY           SKY/WX    TMP DP  RH WIND       PRES   REMARKS
BLOOMINGTON    CLOUDY    69  64  84 SW10      30.03R
CHAMPAIGN      CLOUDY    65  58  78 S7        30.03R
DANVILLE       CLOUDY    68  57  67 S7        30.02R
DECATUR        MOCLDY    67  62  84 S6        30.01S
EFFINGHAM      CLOUDY    66  65  97 CALM      30.04F
FLORA          MOCLDY    67  64  87 SW3       30.04R
GALESBURG      CLOUDY    66  62  86 SE5       29.99R
JACKSONVILLE   CLOUDY    66  61  82 S6        30.00R
LACON          CLEAR     69  63  80 S3        29.98S
LAWRENCEVILLE  MOCLDY    67  61  81 S3        30.04R
LITCHFIELD     CLOUDY    64  61  91 S6        30.02F
$$


CITY           SKY/WX    TMP DP  RH WIND       PRES   REMARKS
LINCOLN        CLOUDY    68  65  90 S5        30.00F
MACOMB         CLOUDY    66  62  86 S5        30.00S
MATTOON        CLOUDY    67  59  75 S3        30.02S
MT CARMEL AP   PTCLDY    65  59  81 CALM      30.04S
OLNEY-NOBLE AP CLOUDY    66  63  88 CALM      30.04S
PARIS          CLOUDY    68  59  73 CALM      30.05R
PEORIA         PTCLDY    69  63  81 S6        29.99S
PONTIAC        CLOUDY    73  64  73 S12       30.01S
RANTOUL        CLOUDY    70  60  70 S3        30.03R
ROBINSON       MOCLDY    63  59  87 S5        30.05R
SPRINGFIELD    CLOUDY    67  63  87 S6        30.00F
TAYLORVILLE    PTCLDY    64  62  91 S6        30.01F
$$

...REGIONAL REPORTS...


CITY           SKY/WX    TMP DP  RH WIND       PRES   REMARKS
CHICAGO O`HARE CLOUDY    73  60  63 S12       29.99R
KANKAKEE       CLOUDY   N/A N/A N/A S7        30.02S
MOLINE         PTCLDY    68  61  78 CALM      29.97R
MOUNT STERLING CLOUDY    62  60  95 S3        29.98S
MOUNT VERNON   CLOUDY    63  57  82 CALM      30.04S
PITTSFIELD     PTCLDY    64  62  92 S5        30.00S
QUINCY         CLOUDY    63  61  93 S6        29.98S
ROCKFORD       CLOUDY    68  60  75 S5        29.99R
$$


CITY           SKY/WX    TMP DP  RH WIND       PRES   REMARKS
BURLINGTON     CLOUDY    66  64  93 S6        29.97R
CEDAR RAPIDS   CLOUDY    65  64  97 S6        29.95R
DES MOINES     CLOUDY    69  63  81 SE7       29.89F
KIRKSVILLE     CLOUDY    62  61  96 SE6       29.95F
OTTUMWA        PTCLDY    66  63  90 S7        29.94S
ST LOUIS       CLOUDY    67  62  84 S6        30.01F
$$


CITY           SKY/WX    TMP DP  RH WIND       PRES   REMARKS
TERRE HAUTE    CLOUDY    66  57  72 S3        30.04R
EVANSVILLE     PTCLDY    65  59  81 CALM      30.05R
INDIANAPOLIS   CLOUDY    66  57  72 SE6       30.04R
LAFAYETTE      MOCLDY    62  56  80 CALM      30.03R
MADISON        CLEAR     62  60  93 N3        29.96R
MILWAUKEE      PTCLDY    63  52  67 CALM      29.97R
$$






USA.gov is the U.S. government's official web portal to all federal, state and local government web resources and services.